When you browse on this site, cookies collect data to enhance your experience and personalize the content and advertising you see.
Visit our Privacy Policy to learn more. By continuing to use the site, you agree to this use of cookies and data.
  • In Netherlands
  • List of Countries
  • For 7 days
  • Water Temperature
  • Satellite Maps
  • Weather Map
  • Weather Widgets
  • user-avatar
    Login

    Hourly Weather Dhaka

    Today, 25 May, Saturday

    Time Temperature Precipitation Wind Pressure Humidity
    00:00 +31°C° 0 mm 3 mps 751 mmHg 82%
    01:00 +32°C° 0.3 mm 4 mps 751 mmHg 82%
    02:00 +32°C° 0.3 mm 4 mps 751 mmHg 82%
    03:00 +32°C° 0.3 mm 4 mps 751 mmHg 82%
    04:00 +32°C° 0 mm 4 mps 751 mmHg 82%
    05:00 +32°C° 0 mm 4 mps 751 mmHg 81%
    06:00 +30°C° 0 mm 4 mps 751 mmHg 81%
    07:00 +32°C° 0 mm 5 mps 751 mmHg 80%
    08:00 +32°C° 0 mm 5 mps 751 mmHg 78%
    09:00 +32°C° 0 mm 5 mps 752 mmHg 76%
    10:00 +33°C° 0.1 mm 5 mps 751 mmHg 76%
    11:00 +33°C° 0.1 mm 4 mps 751 mmHg 76%
    12:00 +33°C° 0.1 mm 4 mps 751 mmHg 76%
    13:00 +34°C° 0 mm 4 mps 751 mmHg 71%
    14:00 +36°C° 0 mm 5 mps 750 mmHg 65%
    15:00 +37°C° 0 mm 5 mps 749 mmHg 60%
    16:00 +37°C° 0 mm 5 mps 749 mmHg 62%
    17:00 +36°C° 0 mm 5 mps 748 mmHg 64%
    18:00 +36°C° 0 mm 5 mps 747 mmHg 66%
    19:00 +35°C° 0.1 mm 5 mps 748 mmHg 69%
    20:00 +34°C° 0.1 mm 6 mps 749 mmHg 72%
    21:00 +33°C° 0.1 mm 6 mps 750 mmHg 74%
    22:00 +33°C° 0.6 mm 5 mps 750 mmHg 76%
    23:00 +33°C° 0.6 mm 4 mps 750 mmHg 78%

    Tomorrow, 26 May, Sunday

    Time Temperature Precipitation Wind Pressure Humidity
    00:00 +31°C° 0.6 mm 3 mps 749 mmHg 79%
    01:00 +32°C° 0 mm 4 mps 749 mmHg 81%
    02:00 +32°C° 0 mm 4 mps 749 mmHg 82%
    03:00 +32°C° 0 mm 4 mps 749 mmHg 83%
    04:00 +32°C° 0.3 mm 4 mps 749 mmHg 84%
    05:00 +31°C° 0.3 mm 3 mps 750 mmHg 84%
    06:00 +31°C° 0.3 mm 2 mps 750 mmHg 84%
    07:00 +32°C° 0 mm 2 mps 751 mmHg 76%
    08:00 +35°C° 0 mm 3 mps 751 mmHg 69%
    09:00 +36°C° 0 mm 4 mps 752 mmHg 61%
    10:00 +37°C° 0 mm 4 mps 751 mmHg 57%
    11:00 +38°C° 0 mm 4 mps 751 mmHg 53%
    12:00 +40°C° 0 mm 3 mps 751 mmHg 49%
    13:00 +40°C° 0 mm 3 mps 750 mmHg 46%
    14:00 +42°C° 0 mm 3 mps 750 mmHg 43%
    15:00 +42°C° 0 mm 2 mps 749 mmHg 39%
    16:00 +40°C° 0.2 mm 3 mps 749 mmHg 47%
    17:00 +39°C° 0.2 mm 5 mps 748 mmHg 54%
    18:00 +36°C° 0.2 mm 6 mps 748 mmHg 62%
    19:00 +36°C° 0.2 mm 6 mps 749 mmHg 66%
    20:00 +35°C° 0.2 mm 6 mps 749 mmHg 69%
    21:00 +34°C° 0.2 mm 6 mps 750 mmHg 73%
    22:00 +34°C° 0 mm 6 mps 750 mmHg 76%
    23:00 +33°C° 0 mm 5 mps 750 mmHg 79%

    Day after tomorrow, 27 May, Monday

    Time Temperature Precipitation Wind Pressure Humidity
    00:00 +33°C° 0 mm 5 mps 750 mmHg 81%
    01:00 +32°C° 0 mm 4 mps 750 mmHg 83%
    02:00 +31°C° 0 mm 3 mps 750 mmHg 84%
    03:00 +31°C° 0 mm 2 mps 750 mmHg 86%
    04:00 +31°C° 0 mm 3 mps 750 mmHg 85%
    05:00 +31°C° 0 mm 3 mps 750 mmHg 84%
    06:00 +33°C° 0 mm 3 mps 751 mmHg 82%
    07:00 +34°C° 0 mm 4 mps 751 mmHg 76%
    08:00 +35°C° 0 mm 4 mps 752 mmHg 69%
    09:00 +37°C° 0 mm 5 mps 752 mmHg 62%
    10:00 +39°C° 0 mm 5 mps 752 mmHg 57%
    11:00 +40°C° 0 mm 5 mps 751 mmHg 51%
    12:00 +42°C° 0 mm 5 mps 751 mmHg 46%
    13:00 +42°C° 0 mm 4 mps 750 mmHg 43%
    14:00 +43°C° 0 mm 4 mps 750 mmHg 40%
    15:00 +44°C° 0 mm 3 mps 749 mmHg 37%
    16:00 +42°C° 0 mm 4 mps 749 mmHg 41%
    17:00 +41°C° 0 mm 4 mps 748 mmHg 46%
    18:00 +40°C° 0 mm 5 mps 748 mmHg 50%
    19:00 +39°C° 0 mm 5 mps 749 mmHg 55%
    20:00 +38°C° 0 mm 6 mps 749 mmHg 59%
    21:00 +36°C° 0 mm 6 mps 750 mmHg 64%
    22:00 +35°C° 0 mm 5 mps 750 mmHg 68%
    23:00 +34°C° 0 mm 5 mps 750 mmHg 72%

    28 May, Tuesday

    Time Temperature Precipitation Wind Pressure Humidity
    00:00 +33°C° 0 mm 4 mps 751 mmHg 77%
    01:00 +33°C° 0 mm 4 mps 751 mmHg 79%
    02:00 +33°C° 0 mm 4 mps 750 mmHg 81%
    03:00 +31°C° 0 mm 3 mps 750 mmHg 82%
    04:00 +33°C° 0 mm 3 mps 751 mmHg 81%
    05:00 +33°C° 0 mm 3 mps 751 mmHg 80%
    06:00 +33°C° 0 mm 3 mps 751 mmHg 78%
    07:00 +34°C° 0 mm 3 mps 751 mmHg 74%
    08:00 +35°C° 0 mm 4 mps 752 mmHg 70%
    09:00 +35°C° 0 mm 4 mps 752 mmHg 66%
    10:00 +37°C° 0 mm 4 mps 752 mmHg 60%
    11:00 +38°C° 0 mm 4 mps 752 mmHg 53%
    12:00 +41°C° 0 mm 4 mps 751 mmHg 47%
    13:00 +42°C° 0 mm 3 mps 750 mmHg 44%
    14:00 +43°C° 0 mm 3 mps 749 mmHg 41%
    15:00 +44°C° 0 mm 3 mps 748 mmHg 37%
    16:00 +43°C° 0 mm 4 mps 748 mmHg 41%
    17:00 +42°C° 0 mm 5 mps 748 mmHg 45%
    18:00 +41°C° 0 mm 6 mps 748 mmHg 49%
    19:00 +39°C° 0 mm 6 mps 748 mmHg 55%
    20:00 +38°C° 0 mm 6 mps 749 mmHg 60%
    21:00 +36°C° 0 mm 6 mps 749 mmHg 65%
    22:00 +35°C° 0.2 mm 6 mps 750 mmHg 68%
    23:00 +34°C° 0.2 mm 6 mps 750 mmHg 71%

    29 May, Wednesday

    Time Temperature Precipitation Wind Pressure Humidity
    00:00 +33°C° 0.2 mm 6 mps 751 mmHg 74%
    01:00 +33°C° 0.1 mm 4 mps 750 mmHg 76%
    02:00 +33°C° 0.1 mm 3 mps 750 mmHg 77%
    03:00 +32°C° 0.1 mm 1 mps 750 mmHg 78%
    04:00 +32°C° 0 mm 2 mps 750 mmHg 79%
    05:00 +32°C° 0 mm 2 mps 750 mmHg 80%
    06:00 +33°C° 0 mm 3 mps 750 mmHg 81%
    07:00 +34°C° 0 mm 4 mps 751 mmHg 75%
    08:00 +35°C° 0 mm 4 mps 751 mmHg 70%
    09:00 +36°C° 0 mm 5 mps 752 mmHg 65%
    10:00 +37°C° 0 mm 5 mps 751 mmHg 60%
    11:00 +40°C° 0 mm 5 mps 751 mmHg 55%
    12:00 +41°C° 0 mm 5 mps 750 mmHg 51%
    13:00 +41°C° 0 mm 5 mps 749 mmHg 48%
    14:00 +42°C° 0 mm 4 mps 749 mmHg 46%
    15:00 +42°C° 0 mm 4 mps 748 mmHg 44%
    16:00 +42°C° 0 mm 5 mps 748 mmHg 47%
    17:00 +41°C° 0 mm 5 mps 748 mmHg 50%
    18:00 +40°C° 0 mm 6 mps 747 mmHg 52%
    19:00 +39°C° 0 mm 6 mps 748 mmHg 57%
    20:00 +38°C° 0 mm 6 mps 749 mmHg 61%
    21:00 +35°C° 0 mm 6 mps 749 mmHg 65%
    22:00 +35°C° 0 mm 6 mps 750 mmHg 69%
    23:00 +34°C° 0 mm 6 mps 750 mmHg 72%

    30 May, Thursday

    Time Temperature Precipitation Wind Pressure Humidity
    00:00 +33°C° 0 mm 6 mps 750 mmHg 75%
    01:00 +33°C° 0 mm 5 mps 750 mmHg 76%
    02:00 +33°C° 0 mm 5 mps 750 mmHg 76%
    03:00 +33°C° 0 mm 4 mps 750 mmHg 76%
    04:00 +33°C° 0.1 mm 4 mps 750 mmHg 76%
    05:00 +33°C° 0.1 mm 4 mps 750 mmHg 76%
    06:00 +33°C° 0.1 mm 4 mps 751 mmHg 77%
    07:00 +33°C° 0 mm 4 mps 751 mmHg 74%
    08:00 +34°C° 0 mm 4 mps 751 mmHg 71%
    09:00 +35°C° 0 mm 4 mps 752 mmHg 68%
    10:00 +35°C° 0 mm 4 mps 751 mmHg 66%
    11:00 +36°C° 0 mm 4 mps 751 mmHg 63%
    12:00 +37°C° 0 mm 4 mps 751 mmHg 61%
    13:00 +37°C° 0 mm 4 mps 750 mmHg 58%
    14:00 +38°C° 0 mm 4 mps 749 mmHg 55%
    15:00 +40°C° 0 mm 5 mps 748 mmHg 52%
    16:00 +40°C° 0 mm 5 mps 748 mmHg 53%
    17:00 +39°C° 0 mm 5 mps 748 mmHg 55%
    18:00 +39°C° 0 mm 5 mps 748 mmHg 56%
    19:00 +37°C° 0 mm 5 mps 748 mmHg 60%
    20:00 +36°C° 0 mm 6 mps 749 mmHg 64%
    21:00 +35°C° 0 mm 6 mps 749 mmHg 68%
    22:00 +34°C° 0 mm 5 mps 750 mmHg 71%
    23:00 +33°C° 0 mm 4 mps 750 mmHg 74%
    Show more